This is the latest recevied weather packets stored in our database for station/object KD7JB. If no packets are shown the sender has not sent any weather packets the latest 10 day(s).
| Time | Temp. | Humidity | Pressure | Rain* | Wind** | Luminosity | Snow |
|---|---|---|---|---|---|---|---|
| 1777860823 | 20.56° C | 39% | 1173.3 hPa | 0 mm | - | 41 W/m² | - |
| 1777860520 | 20.56° C | 39% | 1173.1 hPa | 0 mm | - | 46 W/m² | - |
| 1777860216 | 20.56° C | 38% | 1173.4 hPa | 0 mm | - | 53 W/m² | - |
| 1777859912 | 20.56° C | 38% | 1173.1 hPa | 0 mm | - | 60 W/m² | - |
| 1777859608 | 20.56° C | 38% | 1173.4 hPa | 0 mm | - | 66 W/m² | - |
| 1777859305 | 21.11° C | 39% | 1173.5 hPa | 0 mm | - | 75 W/m² | - |
| 1777859001 | 21.11° C | 37% | 1173.4 hPa | 0 mm | - | 84 W/m² | - |
| 1777858699 | 21.11° C | 37% | 1173.4 hPa | 0 mm | - | 95 W/m² | - |
| 1777858396 | 21.11° C | 36% | 1173.5 hPa | 0 mm | - | 104 W/m² | - |
| 1777858093 | 21.11° C | 36% | 1173.5 hPa | 0 mm | - | 114 W/m² | - |
| 1777857791 | 21.11° C | 37% | 1173.6 hPa | 0 mm | - | 124 W/m² | - |
| 1777857488 | 21.67° C | 36% | 1173.5 hPa | 0 mm | - | 135 W/m² | - |
| 1777857184 | 21.67° C | 36% | 1173.4 hPa | 0 mm | - | 147 W/m² | - |
| 1777856880 | 21.67° C | 37% | 1173.6 hPa | 0 mm | - | 161 W/m² | - |
| 1777856576 | 21.67° C | 37% | 1173.6 hPa | 0 mm | - | 173 W/m² | - |
| 1777856273 | 21.11° C | 36% | 1173.7 hPa | 0 mm | - | 188 W/m² | - |
| 1777855970 | 21.11° C | 36% | 1173.8 hPa | 0 mm | - | 198 W/m² | - |
| 1777855668 | 21.67° C | 35% | 1173.7 hPa | 0 mm | - | 213 W/m² | - |
| 1777855365 | 21.67° C | 36% | 1173.8 hPa | 0 mm | - | 229 W/m² | - |
| 1777855061 | 21.67° C | 34% | 1173.9 hPa | 0 mm | - | 246 W/m² | - |
| 1777854758 | 21.67° C | 35% | 1173.9 hPa | 0 mm | - | 259 W/m² | - |
| 1777854454 | 21.67° C | 36% | 1174 hPa | 0 mm | - | 274 W/m² | - |
| 1777854152 | 21.67° C | 34% | 1174 hPa | 0 mm | - | 288 W/m² | - |
| 1777853849 | 22.22° C | 36% | 1174.2 hPa | 0 mm | - | 303 W/m² | - |
| 1777853546 | 21.67° C | 34% | 1174.2 hPa | 0 mm | - | 318 W/m² | - |
* Rain latest hour (hover to see other rain measurements)
** Current wind speed in m/s (hover to see current wind gust speed)